Simultaneous Nadir Overpasses (SNOs) Predictions

Prediction of SNOs between GOES-14 and NOAA-20 Satellite Orbit:

Table of predicted SNOs for the next 14.0 days since TLE Epoch: 8/30/2024
Index Date Time (GOES-14) GOES-14 Lat,Lon NOAA-20 Lat,Lon Distance(km) Time Diff (sec)
1 09/01/2024 08:35:47 0.00,-108.35 -0.04,-108.28 9.08 80
2 09/03/2024 20:38:55 -0.00,-108.32 -0.14,-109.04 82.03 80
3 09/04/2024 20:22:49 -0.01,-108.33 0.86,-104.51 435.59 80
4 09/06/2024 08:44:34 0.00,-108.37 0.32,-109.77 159.01 80
5 09/07/2024 08:23:08 0.01,-108.37 -0.68,-105.23 357.91 80
6 09/08/2024 20:45:01 -0.00,-108.33 -0.52,-110.52 250.79 80
7 09/09/2024 20:28:54 -0.00,-108.33 0.50,-105.99 266.46 80
8 09/11/2024 08:50:40 -0.00,-108.38 0.67,-111.25 327.99 80
9 09/12/2024 08:29:13 -0.00,-108.37 -0.35,-106.71 188.48 80
